Slayton, MN

2:27 AM CST on February 26, 2017 (GMT -0600)
Slayton

Weather History for KDVP - July, 2013

Change the Weather History Date:

Monday, July 1, 2013

  Actual Average (KOTG) Record (KOTG)
Temperature  
Mean Temperature 68 °F -  
Max Temperature 82 °F 77 °F 94 °F (1991)
Min Temperature 54 °F 59 °F 46 °F (1988)
Cooling Degree Days 3    
Growing Degree Days 18 (Base 50)    
Moisture  
Dew Point 50 °F    
Average Humidity 54    
Maximum Humidity 89    
Minimum Humidity 26    
Precipitation  
Precipitation 0.00 in - - ()
Sea Level Pressure  
Sea Level Pressure 30.22 in    
Wind  
Wind Speed 5 mph (North)    
Max Wind Speed 13 mph    
Max Gust Speed -    
Visibility 10 miles    
Events      
Averages and records for this station are not official NWS values.
T = Trace of Precipitation, MM = Missing Value Source: NWS Daily Summary

Daily Weather History Graph

Daily Weather History Graph

Search for Another Location

Airport or City:

Trip Planner

Search our weather history database for the weather conditions in past years. The results will help you decide how hot, cold, wet, or windy it might be!

Date:

Astronomy

Jul. 01, 2013 Rise Set
Actual Time 5:44 AM CDT 9:09 PM CDT
Civil Twilight 5:08 AM CDT 9:45 PM CDT
Nautical Twilight 4:20 AM CDT 10:32 PM CDT
Astronomical Twilight 3:21 AM CDT 11:32 PM CDT
Moon 1:22 AM CDT (7/1) 3:19 PM CDT (7/1)
Length of Visible Light 16h 37m
Length of Day
15h 25m
Waning Crescent, 35% of the Moon is Illuminated
Jul 1
Waning Crescent
Jul 8
New
Jul 15
First Quarter
Jul 22
Full
Jul 29
Last Quarter

Hourly Weather History & Observations

Time (CDT) Temp. Dew Point Humidity Pressure Visibility Wind Dir Wind Speed Gust Speed Precip Events Conditions
12:13 AM 59.9 °F 52.0 °F 75% 30.20 in 10.0 mi NW 4.6 mph - N/A   Clear
12:34 AM 60.1 °F 52.0 °F 75% 30.20 in 10.0 mi WNW 4.6 mph - N/A   Clear
12:53 AM 59.9 °F 51.8 °F 75% 30.20 in 10.0 mi NW 4.6 mph - N/A   Clear
1:13 AM 58.6 °F 52.2 °F 79% 30.20 in 10.0 mi NW 4.6 mph - N/A   Clear
1:34 AM 59.0 °F 51.8 °F 77% 30.20 in 10.0 mi WNW 4.6 mph - N/A   Clear
1:54 AM 58.1 °F 51.8 °F 80% 30.20 in 10.0 mi WNW 5.8 mph - N/A   Clear
2:12 AM 56.5 °F 51.8 °F 84% 30.20 in 10.0 mi WNW 5.8 mph - N/A   Clear
2:33 AM 56.5 °F 51.8 °F 84% 30.20 in 10.0 mi WNW 5.8 mph - N/A   Clear
2:54 AM 55.9 °F 51.6 °F 85% 30.21 in 10.0 mi West 4.6 mph - N/A   Clear
3:14 AM 56.1 °F 51.1 °F 83% 30.21 in 10.0 mi WNW 5.8 mph - N/A   Clear
3:33 AM 55.8 °F 51.4 °F 85% 30.21 in 10.0 mi WNW 4.6 mph - N/A   Clear
3:53 AM 54.5 °F 51.1 °F 88% 30.21 in 10.0 mi WNW 5.8 mph - N/A   Clear
4:13 AM 55.8 °F 51.4 °F 85% 30.21 in 10.0 mi WNW 4.6 mph - N/A   Clear
4:33 AM 55.9 °F 50.9 °F 83% 30.21 in 10.0 mi WNW 4.6 mph - N/A   Clear
4:54 AM 56.3 °F 50.9 °F 82% 30.22 in 10.0 mi WNW 5.8 mph - N/A   Clear
5:13 AM 54.5 °F 50.9 °F 88% 30.22 in 10.0 mi WNW 4.6 mph - N/A   Clear
5:33 AM 54.1 °F 50.9 °F 89% 30.22 in 10.0 mi WNW 4.6 mph - N/A   Clear
5:53 AM 54.5 °F 50.7 °F 87% 30.23 in 10.0 mi WNW 4.6 mph - N/A   Clear
6:13 AM 54.1 °F 50.5 °F 88% 30.23 in 10.0 mi WNW 3.5 mph - N/A   Clear
6:33 AM 55.9 °F 51.1 °F 84% 30.24 in 10.0 mi WNW 3.5 mph - N/A   Clear
6:53 AM 57.2 °F 52.7 °F 85% 30.24 in 10.0 mi WNW 3.5 mph - N/A   Clear
7:13 AM 59.4 °F 52.9 °F 79% 30.24 in 10.0 mi WNW 4.6 mph - N/A   Clear
7:34 AM 61.7 °F 53.8 °F 75% 30.24 in 10.0 mi WNW 3.5 mph - N/A   Clear
7:54 AM 64.4 °F 53.4 °F 67% 30.25 in 10.0 mi NW 4.6 mph - N/A   Clear
8:14 AM 66.4 °F 53.2 °F 63% 30.25 in 10.0 mi NW 4.6 mph - N/A   Clear
8:33 AM 68.5 °F 54.0 °F 60% 30.25 in 7.0 mi NNW 8.1 mph - N/A   Clear
8:53 AM 70.5 °F 53.6 °F 55% 30.26 in 10.0 mi North 8.1 mph - N/A   Clear
9:13 AM 72.0 °F 53.1 °F 51% 30.26 in 10.0 mi North 4.6 mph - N/A   Clear
9:33 AM 73.2 °F 52.0 °F 47% 30.26 in 10.0 mi North 5.8 mph - N/A   Clear
9:53 AM 74.5 °F 51.3 °F 44% 30.25 in 10.0 mi NNE 6.9 mph - N/A   Clear
10:14 AM 75.6 °F 50.2 °F 41% 30.25 in 10.0 mi NNE 5.8 mph - N/A   Clear
10:32 AM 76.1 °F 50.5 °F 41% 30.25 in 10.0 mi North 10.4 mph - N/A   Clear
10:54 AM 76.8 °F 50.9 °F 40% 30.25 in 10.0 mi NE 8.1 mph - N/A   Clear
11:13 AM 77.5 °F 50.2 °F 38% 30.25 in 10.0 mi North 10.4 mph - N/A   Clear
11:33 AM 77.5 °F 48.4 °F 36% 30.25 in 10.0 mi NNE 9.2 mph - N/A   Clear
11:53 AM 78.4 °F 47.8 °F 34% 30.25 in 10.0 mi North 5.8 mph - N/A   Scattered Clouds
12:13 PM 78.3 °F 47.3 °F 34% 30.25 in 10.0 mi NNE 4.6 mph - N/A   Mostly Cloudy
12:33 PM 79.2 °F 46.2 °F 31% 30.25 in 10.0 mi NE 3.5 mph - N/A   Scattered Clouds
12:53 PM 79.3 °F 44.1 °F 29% 30.24 in 10.0 mi NNE 9.2 mph - N/A   Clear
1:14 PM 78.4 °F 45.7 °F 31% 30.24 in 10.0 mi ENE 4.6 mph - N/A   Scattered Clouds
1:33 PM 79.7 °F 45.3 °F 30% 30.24 in 10.0 mi North 6.9 mph - N/A   Scattered Clouds
1:53 PM 80.2 °F 45.1 °F 29% 30.23 in 10.0 mi NE 6.9 mph - N/A   Scattered Clouds
2:13 PM 78.8 °F 45.5 °F 31% 30.23 in 10.0 mi NE 6.9 mph - N/A   Scattered Clouds
2:33 PM 80.1 °F 44.1 °F 28% 30.22 in 10.0 mi East 3.5 mph - N/A   Scattered Clouds
2:53 PM 81.1 °F 43.3 °F 26% 30.22 in 10.0 mi North 4.6 mph - N/A   Scattered Clouds
3:14 PM 81.3 °F 45.3 °F 28% 30.22 in 10.0 mi North 10.4 mph - N/A   Scattered Clouds
3:33 PM 81.5 °F 43.3 °F 26% 30.22 in 10.0 mi NNE 9.2 mph - N/A   Clear
3:53 PM 81.7 °F 45.1 °F 28% 30.21 in 10.0 mi North 11.5 mph - N/A   Clear
4:13 PM 82.0 °F 46.4 °F 29% 30.21 in 10.0 mi North 12.7 mph - N/A   Scattered Clouds
4:32 PM 80.1 °F 44.2 °F 28% 30.21 in 10.0 mi North 8.1 mph - N/A   Mostly Cloudy
4:53 PM 80.2 °F 45.7 °F 30% 30.20 in 10.0 mi North 4.6 mph - N/A   Scattered Clouds
5:13 PM 81.1 °F 45.9 °F 29% 30.20 in 10.0 mi NE 4.6 mph - N/A   Scattered Clouds
5:33 PM 80.8 °F 45.9 °F 29% 30.20 in 10.0 mi NE 5.8 mph - N/A   Mostly Cloudy
5:53 PM 80.6 °F 45.3 °F 29% 30.20 in 10.0 mi NE 5.8 mph - N/A   Mostly Cloudy
6:13 PM 79.9 °F 45.9 °F 30% 30.20 in 10.0 mi NE 3.5 mph - N/A   Scattered Clouds
6:34 PM 80.1 °F 44.8 °F 29% 30.20 in 10.0 mi NE 4.6 mph - N/A   Scattered Clouds
6:53 PM 79.9 °F 44.1 °F 28% 30.20 in 10.0 mi North 3.5 mph - N/A   Clear
7:13 PM 79.7 °F 46.4 °F 31% 30.19 in 10.0 mi NNE 4.6 mph - N/A   Clear
7:33 PM 79.0 °F 45.9 °F 31% 30.19 in 10.0 mi NNE 3.5 mph - N/A   Clear
7:54 PM 78.1 °F 46.8 °F 33% 30.20 in 10.0 mi NNE 3.5 mph - N/A   Clear
8:13 PM 77.0 °F 48.2 °F 36% 30.20 in 10.0 mi NNE 3.5 mph - N/A   Clear
8:33 PM 75.7 °F 49.1 °F 39% 30.19 in 10.0 mi NNE 3.5 mph - N/A   Clear
8:54 PM 74.7 °F 50.0 °F 42% 30.19 in 10.0 mi Calm Calm - N/A   Clear
9:13 PM 72.9 °F 50.9 °F 46% 30.19 in 10.0 mi Calm Calm - N/A   Clear
9:33 PM 70.7 °F 53.4 °F 54% 30.19 in 10.0 mi Calm Calm - N/A   Clear
9:53 PM 70.0 °F 52.2 °F 53% 30.20 in 5.0 mi North 3.5 mph - N/A   Haze
10:14 PM 68.0 °F 54.5 °F 62% 30.20 in 7.0 mi NNE 3.5 mph - N/A   Clear
10:33 PM 67.1 °F 54.3 °F 63% 30.20 in 7.0 mi NNE 3.5 mph - N/A   Clear
10:54 PM 68.4 °F 52.3 °F 57% 30.20 in 10.0 mi NE 3.5 mph - N/A   Clear
11:13 PM 67.1 °F 53.1 °F 61% 30.20 in 7.0 mi ENE 4.6 mph - N/A   Clear
11:33 PM 66.9 °F 53.2 °F 61% 30.20 in 10.0 mi Calm Calm - N/A   Clear
11:53 PM 66.0 °F 53.4 °F 64% 30.20 in 10.0 mi East 4.6 mph - N/A   Clear